{"data":{"norad_id":52717,"intl_designator":"2022-056B","name":"2022-056B","alt_names":[],"object_type":"PAYLOAD","status":"ACTIVE","operator":null,"country":"PRC","launch_date":"2022-05-20","launch_site_code":"JSC","launch_vehicle":null,"mission":null,"orbit_class":"UNKNOWN","rcs_meters":null,"size_class":null,"mass_kg":null,"dimensions":null,"purposes":[],"wikipedia_slug":null,"has_3d_model":false,"image_url":null,"decayed_at":null,"tle_current":{"epoch":"2026-09-20T22:15:24.813792Z","epoch_age_seconds":94805,"freshness":"FRESH","line1":"1 52717U 22056B   26263.92737053  .00000490  00000+0  10176-2 0  9991","line2":"2 52717  86.0043  61.7620 0045567 138.0353 222.4290 13.29598394211038","mean_motion":13.29598394,"eccentricity":0.0045567,"inclination_deg":86.0043,"raan_deg":61.762,"arg_perigee_deg":138.0353,"mean_anomaly_deg":222.429,"bstar":0.0010176,"rev_number":21103,"period_min":108.30337991518,"perigee_km":1113.9828243667,"apogee_km":1182.5740588523,"semimajor_km":7526.4154416095,"source":"CELESTRAK","updated_at":"2026-09-21T09:00:08.714372Z"}}}